BAW2247 LTFM-EGKK

Flight info

Callsign BAW2247
Flight time N/A
Altitude 38000
Route VADEN1D/35L VADEN N618 GOL Y520 LUKOV Q8 DOLAP DCT VEBAR DCT BOSNA DCT RIFEN DCT SAFFA DCT ELMUR L613 RIPUS DCT DITON DCT HOC DCT LUL DCT RLP DCT ROTSI DCT KOTUN DCT NINAL DCT KESAX DCT KUNAV
Aircraft B77W/H-SDE1E2E3FGHIJ2J3J4J5M1RWXY/LB1D1

Departure

Time N/A
Airport İstanbul Airport (LTFM)

Arrival

Time 2026-05-04 18:20
Airport London Gatwick Airport (EGKK)
Time Latitude Longitude Altitude Speed Heading
2026-05-04 17:14 47.13372 8.99337 37980 ft 452 kts 289°
2026-05-04 17:15 47.23750 8.58948 38121 ft 452 kts 287°
2026-05-04 17:16 47.30827 8.30806 38003 ft 457 kts 287°
2026-05-04 17:17 47.47818 7.60262 38023 ft 453 kts 281°
2026-05-04 17:18 47.59286 6.89922 38028 ft 452 kts 280°
2026-05-04 17:19 47.62186 6.71769 38004 ft 453 kts 280°
2026-05-04 17:20 47.65064 6.53554 37996 ft 454 kts 280°
2026-05-04 17:20 47.67205 6.39873 38000 ft 454 kts 279°
2026-05-04 17:21 47.70418 6.21725 38007 ft 457 kts 284°
2026-05-04 17:22 47.72361 6.12740 38000 ft 457 kts 284°
2026-05-04 17:23 47.76189 5.94733 38000 ft 456 kts 284°
2026-05-04 17:24 47.79017 5.81218 37996 ft 457 kts 283°
2026-05-04 17:25 47.82768 5.63152 37990 ft 457 kts 283°
2026-05-04 17:26 47.86479 5.45119 37992 ft 457 kts 283°
2026-05-04 17:27 47.92131 5.22950 37977 ft 466 kts 299°
2026-05-04 17:28 48.00693 5.08166 37975 ft 473 kts 308°
2026-05-04 17:29 48.14013 4.86254 37960 ft 476 kts 308°
2026-05-04 17:31 48.24952 4.68008 37960 ft 478 kts 308°
2026-05-04 17:32 48.36020 4.49377 37944 ft 478 kts 308°
2026-05-04 17:33 48.44829 4.34431 37938 ft 478 kts 307°
2026-05-04 17:34 48.53635 4.19407 37940 ft 478 kts 307°
2026-05-04 17:35 48.64621 4.00543 37939 ft 478 kts 308°
2026-05-04 17:36 48.69007 3.92976 37941 ft 478 kts 307°
2026-05-04 17:36 48.73440 3.85466 37934 ft 480 kts 311°
2026-05-04 17:37 48.78188 3.78361 37937 ft 480 kts 312°
2026-05-04 17:37 48.82990 3.71315 37937 ft 480 kts 312°
2026-05-04 17:38 48.87772 3.64234 37934 ft 480 kts 312°
2026-05-04 17:38 48.92490 3.57182 37938 ft 480 kts 311°
2026-05-04 17:39 48.99563 3.46550 37948 ft 480 kts 312°
2026-05-04 17:39 49.04274 3.39446 37948 ft 480 kts 312°
2026-05-04 17:40 49.09016 3.32278 37935 ft 480 kts 312°
2026-05-04 17:40 49.13729 3.25134 37945 ft 480 kts 312°
2026-05-04 17:41 49.18461 3.17939 37933 ft 480 kts 312°
2026-05-04 17:41 49.23182 3.10742 37945 ft 480 kts 311°
2026-05-04 17:42 49.27136 3.04697 37947 ft 481 kts 312°
2026-05-04 17:42 49.31834 2.97493 37937 ft 481 kts 312°
2026-05-04 17:43 49.36528 2.90271 37941 ft 481 kts 311°
2026-05-04 17:43 49.41251 2.82984 37943 ft 481 kts 311°
2026-05-04 17:44 49.46003 2.75632 37940 ft 482 kts 311°
2026-05-04 17:44 49.50686 2.68364 37961 ft 482 kts 312°
2026-05-04 17:45 49.55403 2.61022 37949 ft 482 kts 312°
2026-05-04 17:45 49.60113 2.53671 37940 ft 482 kts 312°
2026-05-04 17:46 49.64817 2.46309 37941 ft 481 kts 311°
2026-05-04 17:46 49.69511 2.38939 37941 ft 481 kts 311°
2026-05-04 17:47 49.74193 2.31563 37946 ft 481 kts 312°
2026-05-04 17:47 49.78873 2.24174 37956 ft 480 kts 312°
2026-05-04 17:48 49.81229 2.20446 37288 ft 490 kts 312°
2026-05-04 17:48 49.83608 2.16674 36644 ft 489 kts 312°
2026-05-04 17:48 49.85979 2.12912 35934 ft 487 kts 312°
2026-05-04 17:48 49.88342 2.09157 35156 ft 487 kts 311°
2026-05-04 17:49 49.90696 2.05409 34605 ft 482 kts 311°
2026-05-04 17:49 49.93021 2.01703 34073 ft 477 kts 311°
2026-05-04 17:49 49.95327 1.98023 33485 ft 473 kts 311°
2026-05-04 17:49 49.97575 1.94427 32931 ft 468 kts 311°
2026-05-04 17:50 49.99833 1.90811 32410 ft 463 kts 311°
2026-05-04 17:50 50.02065 1.87230 31901 ft 458 kts 311°
2026-05-04 17:50 50.04269 1.83690 31397 ft 454 kts 312°
2026-05-04 17:50 50.06455 1.80174 30907 ft 450 kts 312°
2026-05-04 17:51 50.08621 1.76685 30417 ft 446 kts 312°
2026-05-04 17:51 50.10768 1.73221 29910 ft 443 kts 312°
2026-05-04 17:51 50.12897 1.69784 29346 ft 439 kts 312°
2026-05-04 17:51 50.15007 1.66371 28833 ft 435 kts 312°
2026-05-04 17:52 50.17093 1.62993 28340 ft 431 kts 312°
2026-05-04 17:52 50.19161 1.59639 27859 ft 427 kts 312°
2026-05-04 17:52 50.21208 1.56316 27364 ft 423 kts 312°
2026-05-04 17:52 50.23240 1.53012 26891 ft 420 kts 312°
2026-05-04 17:53 50.25254 1.49733 26397 ft 417 kts 312°
2026-05-04 17:53 50.27250 1.46478 25924 ft 414 kts 312°
2026-05-04 17:53 50.29235 1.43239 25461 ft 411 kts 312°
2026-05-04 17:53 50.31206 1.40017 25000 ft 408 kts 312°
2026-05-04 17:54 50.33162 1.36816 24548 ft 407 kts 312°
2026-05-04 17:54 50.35110 1.33625 24087 ft 405 kts 311°
2026-05-04 17:54 50.37051 1.30439 23615 ft 403 kts 311°
2026-05-04 17:54 50.38987 1.27258 23105 ft 402 kts 312°
2026-05-04 17:55 50.40909 1.24095 22604 ft 400 kts 312°
2026-05-04 17:55 50.42820 1.20950 22147 ft 396 kts 311°
2026-05-04 17:55 50.44714 1.17826 21682 ft 394 kts 311°
2026-05-04 17:55 50.46594 1.14720 21233 ft 391 kts 311°
2026-05-04 17:56 50.48460 1.11637 20792 ft 388 kts 312°
2026-05-04 17:56 50.50315 1.08569 20339 ft 386 kts 312°
2026-05-04 17:56 50.52157 1.05513 19892 ft 384 kts 312°
2026-05-04 17:56 50.53978 1.02451 19445 ft 383 kts 313°
2026-05-04 17:57 50.55786 0.99394 19013 ft 381 kts 313°
2026-05-04 17:57 50.57587 0.96344 18562 ft 380 kts 313°
2026-05-04 17:57 50.59379 0.93308 18087 ft 378 kts 313°
2026-05-04 17:57 50.61168 0.90277 17592 ft 377 kts 313°
2026-05-04 17:58 50.62950 0.87256 17112 ft 376 kts 313°
2026-05-04 17:58 50.64723 0.84248 16656 ft 374 kts 313°
2026-05-04 17:58 50.66486 0.81254 16194 ft 372 kts 313°
2026-05-04 17:58 50.68221 0.78241 15692 ft 371 kts 310°
2026-05-04 17:59 50.69860 0.75101 15182 ft 371 kts 309°
2026-05-04 17:59 50.71463 0.71905 14657 ft 372 kts 308°
2026-05-04 17:59 50.74562 0.65720 13607 ft 348 kts 309°
2026-05-04 18:00 50.76075 0.62730 13086 ft 349 kts 309°
2026-05-04 18:00 50.77585 0.59755 12580 ft 350 kts 309°
2026-05-04 18:00 50.79112 0.56750 12080 ft 351 kts 309°
2026-05-04 18:00 50.80637 0.53748 11638 ft 350 kts 309°
2026-05-04 18:01 50.82155 0.50755 11213 ft 348 kts 308°
2026-05-04 18:01 50.83666 0.47771 10779 ft 343 kts 308°
2026-05-04 18:01 50.85086 0.44966 10534 ft 312 kts 308°
2026-05-04 18:02 50.87619 0.39954 9639 ft 278 kts 308°
2026-05-04 18:02 50.88793 0.37629 9045 ft 277 kts 308°
2026-05-04 18:02 50.89999 0.35236 8698 ft 277 kts 308°
2026-05-04 18:02 50.91208 0.32937 8606 ft 267 kts 311°
2026-05-04 18:03 50.92418 0.30827 8358 ft 252 kts 312°
2026-05-04 18:03 50.93595 0.28797 8023 ft 250 kts 312°
2026-05-04 18:03 50.94762 0.26779 7775 ft 246 kts 312°
2026-05-04 18:03 50.95913 0.24787 7501 ft 244 kts 312°
2026-05-04 18:04 50.97056 0.22803 7212 ft 243 kts 312°
2026-05-04 18:04 50.98169 0.20867 7068 ft 236 kts 312°
2026-05-04 18:04 51.00385 0.16997 7006 ft 242 kts 312°
2026-05-04 18:05 51.01525 0.14999 7001 ft 245 kts 312°
2026-05-04 18:05 51.02669 0.12994 6992 ft 244 kts 312°
2026-05-04 18:05 51.03801 0.11009 6994 ft 242 kts 312°
2026-05-04 18:05 51.04928 0.09029 6993 ft 241 kts 312°
2026-05-04 18:06 51.07168 0.05093 6982 ft 239 kts 312°
2026-05-04 18:06 51.08263 0.03168 6694 ft 235 kts 312°
2026-05-04 18:06 51.09349 0.01250 6118 ft 233 kts 312°
2026-05-04 18:07 51.10424 -0.00664 5466 ft 235 kts 312°
2026-05-04 18:07 51.11294 -0.02846 5192 ft 241 kts 287°
2026-05-04 18:07 51.11364 -0.05512 5036 ft 246 kts 256°
2026-05-04 18:07 51.10756 -0.08003 5009 ft 238 kts 246°
2026-05-04 18:08 51.10076 -0.10387 5011 ft 239 kts 246°
2026-05-04 18:08 51.09383 -0.12808 5007 ft 240 kts 246°
2026-05-04 18:08 51.08688 -0.15221 5002 ft 241 kts 246°
2026-05-04 18:08 51.07989 -0.17638 4995 ft 240 kts 246°
2026-05-04 18:09 51.06605 -0.22383 4596 ft 239 kts 246°
2026-05-04 18:09 51.05201 -0.27199 4320 ft 239 kts 246°
2026-05-04 18:10 51.04514 -0.29552 4044 ft 233 kts 246°
2026-05-04 18:10 51.03830 -0.31892 4029 ft 236 kts 246°
2026-05-04 18:10 51.03131 -0.34281 4011 ft 239 kts 246°
2026-05-04 18:10 51.02428 -0.36677 4012 ft 240 kts 246°
2026-05-04 18:11 51.01726 -0.39072 4013 ft 239 kts 246°
2026-05-04 18:11 51.01026 -0.41467 4008 ft 239 kts 246°
2026-05-04 18:11 51.00326 -0.43862 4001 ft 239 kts 246°
2026-05-04 18:11 50.99629 -0.46245 4002 ft 238 kts 246°
2026-05-04 18:12 50.98935 -0.48619 4001 ft 237 kts 246°
2026-05-04 18:12 50.98351 -0.51033 3980 ft 232 kts 263°
2026-05-04 18:12 50.98533 -0.53540 4008 ft 233 kts 296°
2026-05-04 18:12 50.99541 -0.55520 4015 ft 233 kts 328°
2026-05-04 18:13 51.01023 -0.56423 4005 ft 226 kts 349°
2026-05-04 18:13 51.02575 -0.56897 4014 ft 228 kts 350°
2026-05-04 18:13 51.05692 -0.57823 3962 ft 225 kts 351°
2026-05-04 18:14 51.07212 -0.58269 3598 ft 220 kts 351°
2026-05-04 18:14 51.08693 -0.58220 3290 ft 209 kts 21°
2026-05-04 18:14 51.09685 -0.57082 3135 ft 197 kts 55°
2026-05-04 18:15 51.10204 -0.53017 3007 ft 183 kts 80°
2026-05-04 18:15 51.10673 -0.49077 3002 ft 181 kts 76°
2026-05-04 18:15 51.10939 -0.47120 3002 ft 181 kts 76°
2026-05-04 18:16 51.11207 -0.45162 3010 ft 181 kts 76°
2026-05-04 18:16 51.11477 -0.43205 2994 ft 181 kts 76°
2026-05-04 18:16 51.11749 -0.41237 2819 ft 182 kts 76°
2026-05-04 18:17 51.12252 -0.37578 2346 ft 154 kts 76°
2026-05-04 18:17 51.12474 -0.35970 2170 ft 145 kts 75°
2026-05-04 18:17 51.12926 -0.32712 1759 ft 155 kts 76°
2026-05-04 18:18 51.13158 -0.31030 1536 ft 156 kts 76°
2026-05-04 18:18 51.13384 -0.29381 1315 ft 147 kts 76°
2026-05-04 18:18 51.13599 -0.27829 1117 ft 142 kts 76°
2026-05-04 18:18 51.13811 -0.26294 950 ft 142 kts 76°
2026-05-04 18:19 51.14243 -0.23227 518 ft 140 kts 77°
2026-05-04 18:19 51.14452 -0.21727 371 ft 137 kts 78°
2026-05-04 18:19 51.14648 -0.20225 237 ft 140 kts 77°
2026-05-04 18:20 51.14843 -0.18821 216 ft 112 kts 77°
2026-05-04 18:20 51.14968 -0.17914 215 ft 59 kts 78°
2026-05-04 18:20 51.15030 -0.17468 219 ft 17 kts 74°
2026-05-04 18:20 51.15079 -0.17301 218 ft 17 kts 58°
2026-05-04 18:21 51.15129 -0.17221 218 ft 7 kts 30°
2026-05-04 18:21 51.15174 -0.17236 215 ft 8 kts 326°
2026-05-04 18:21 51.15220 -0.17286 219 ft 8 kts 325°
2026-05-04 18:21 51.15240 -0.17309 218 ft 2 kts 326°
2026-05-04 18:22 51.15252 -0.17321 217 ft 0 kts 327°
2026-05-04 18:22 51.15254 -0.17323 217 ft 0 kts 327°
2026-05-04 18:22 51.15258 -0.17327 217 ft 1 kts 327°
2026-05-04 18:22 51.15260 -0.17329 219 ft 0 kts 327°
2026-05-04 18:23 51.15265 -0.17332 219 ft 4 kts 335°
2026-05-04 18:23 51.15354 -0.17373 217 ft 21 kts 348°
2026-05-04 18:23 51.15476 -0.17415 208 ft 17 kts 348°
2026-05-04 18:24 51.15537 -0.17436 214 ft 4 kts 348°
2026-05-04 18:24 51.15569 -0.17430 216 ft 6 kts 33°
2026-05-04 18:24 51.15590 -0.17377 217 ft 6 kts 71°
2026-05-04 18:24 51.15609 -0.17270 215 ft 17 kts 74°
2026-05-04 18:25 51.15634 -0.17097 213 ft 9 kts 78°
2026-05-04 18:25 51.15677 -0.17041 217 ft 8 kts 10°
2026-05-04 18:25 51.15724 -0.17002 218 ft 8 kts 43°
2026-05-04 18:25 51.15756 -0.16948 220 ft 5 kts 47°
2026-05-04 18:26 51.15764 -0.16935 219 ft 2 kts 47°
2026-05-04 18:26 51.15769 -0.16925 219 ft 1 kts 48°
2026-05-04 18:26 51.15772 -0.16921 218 ft 1 kts 48°
2026-05-04 18:26 51.15772 -0.16920 218 ft 0 kts 48°